SCP
0 0 0 0 0 0 0 0 0 0 0 0 0 0 0 0 0 0 0 0 0 0 0 0 0 0 1 1 1 1 1 1 2 2 1 0 0 0 0 0 0 0 0 0
0 0 0 0 0 0 0 0 0 0 0 0 0 0 0 0 0 0 0 0 0 0 0 0 0 0 0 1 1 1 1 1 2 2 1 1 0 0 0 0 0 0 0 0
0 0 0 0 0 0 0 0 0 0 0 0 0 0 0 0 0 0 0 0 0 0 0 0 0 0 0 0 0 1 1 1 2 3 2 1 0 0 0 0 0 0 0 0
0 0 0 0 0 0 0 0 0 0 0 0 0 0 0 0 0 0 0 0 0 0 0 0 0 0 0 0 0 0 0 1 2 3 3 2 1 1 0 0 0 0 0 0
0 0 0 0 0 0 0 0 0 0 0 0 0 0 0 0 0 0 0 0 0 0 0 0 0 0 0 0 0 0 0 1 3 4 3 2 2 1 1 0 0 0 0 0
0 0 0 0 0 0 0 0 0 0 0 0 0 0 0 0 0 0 0 0 0 0 0 0 0 0 0 0 0 0 0 2 3 4 3 3 2 2 1 0 0 0 0 0
0 0 0 0 0 0 0 0 0 0 0 0 0 0 0 0 0 0 0 0 0 0 0 0 0 0 0 0 0 0 1 2 3 4 4 3 3 2 1 0 0 0 0 0
0 0 0 0 0 0 0 0 0 0 0 0 0 0 0 0 0 0 0 0 0 0 0 0 0 0 0 0 0 1 1 2 3 4 4 3 3 2 1 0 0 0 0 0
0 0 0 0 0 0 0 0 0 0 0 0 0 0 0 0 0 0 0 0 0 0 0 0 0 0 0 0 1 1 2 2 3 3 3 3 2 1 0 0 0 0 0 0
0 0 0 0 0 0 0 0 0 0 0 0 0 0 0 0 0 0 0 0 0 0 0 0 0 0 0 0 1 1 1 2 2 2 2 2 2 1 0 0 0 0 0 0
0 0 0 0 0 0 0 0 0 0 0 0 0 0 0 0 0 0 0 0 0 0 0 0 0 0 0 0 1 1 1 1 1 1 1 1 1 0 0 0 0 0 0 0
0 0 0 0 0 0 0 0 0 0 0 0 0 0 0 0 0 0 0 0 0 0 0 0 0 0 0 0 0 0 0 0 0 1 1 1 0 0 0 0 0 0 0 0
0 0 0 0 0 0 0 0 0 0 0 0 0 0 0 0 0 0 0 0 0 0 0 0 0 0 0 0 0 0 0 0 0 0 1 1 0 0 0 0 0 0 0 0
0 0 0 0 0 0 0 0 0 0 0 0 0 0 0 0 0 0 0 0 0 0 0 0 0 0 0 0 0 0 0 0 0 0 0 0 0 0 0 0 0 0 0 0
0 0 0 0 0 0 0 0 0 0 0 0 0 0 0 0 0 0 0 0 0 0 0 0 0 0 0 0 0 0 0 0 0 0 0 0 0 0 0 0 0 0 0 0
0 0 0 0 0 0 0 0 0 0 0 0 0 0 0 0 0 0 0 0 0 0 0 0 0 0 0 0 0 0 0 0 0 0 0 0 0 0 0 0 0 0 0 0
0 0 0 0 0 0 0 0 0 0 0 0 0 0 0 0 0 0 0 0 0 0 0 0 0 0 0 0 0 0 0 0 0 0 0 0 0 0 0 0 0 0 0 0
0 0 0 0 0 0 0 0 0 0 0 0 0 0 0 0 0 0 0 0 0 0 0 0 0 0 0 0 0 0 0 0 0 0 0 0 0 0 0 0 0 0 0 0
0 0 0 0 0 0 0 0 0 0 0 0 0 0 0 0 0 0 0 0 0 0 0 0 0 0 0 0 0 0 0 0 0 0 0 0 0 0 0 0 0 0 0 0
0 0 0 0 0 0 0 0 0 0 0 0 0 0 0 0 0 0 0 0 0 0 0 0 0 0 0 0 0 0 0 0 0 0 0 0 0 0 0 0 0 0 0 0
0 0 0 0 0 0 0 0 0 0 0 0 0 0 0 0 0 0 0 0 0 0 0 0 0 0 0 0 0 0 0 0 0 0 0 0 0 0 0 0 0 0 0 0
0 0 0 0 0 0 0 0 0 0 0 0 0 0 0 0 0 0 0 0 0 0 0 0 0 0 0 0 0 0 0 0 0 0 0 0 0 0 0 0 0 0 0 0
0 0 0 0 0 0 0 0 0 0 0 0 0 0 0 0 0 0 0 0 0 0 0 0 0 0 0 0 0 0 0 0 0 0 0 0 0 0 0 0 0 0 0 0
0 0 0 0 0 0 0 0 0 0 0 0 0 0 0 0 0 0 0 0 0 0 0 0 0 0 0 0 0 0 0 0 0 0 0 0 0 0 0 0 0 0 0 0
0 0 0 0 0 0 0 0 0 0 0 0 0 0 0 0 0 0 0 0 0 0 0 0 0 0 0 0 0 0 0 0 0 0 0 0 0 0 0 0 0 0 0 0
0 0 0 0 0 0 0 0 0 0 0 0 0 0 0 0 0 0 0 0 0 0 0 0 0 0 0 0 0 0 0 0 0 0 0 0 0 0 0 0 0 0 0 0
Wind_Speed
10 8 11 14 16 11 6 7 7 3 4 6 8 10 9 7 7 8 8 8 9 9 9 9 9 8 8 8 8 7 6 5 4 3 2 2 1 1 1 1 1 1 0 0
8 13 14 11 11 12 11 9 6 2 3 3 5 9 9 9 10 9 9 9 9 9 9 9 9 8 8 8 8 7 7 6 5 3 2 2 2 1 1 1 1 1 1 1
14 7 10 13 11 11 12 10 7 4 1 3 3 8 10 10 11 9 9 8 8 10 10 10 9 8 7 7 8 7 7 6 5 4 2 2 1 1 0 1 1 1 1 1
12 10 7 10 11 10 9 7 6 4 2 4 5 5 6 7 9 10 10 8 8 8 9 10 10 9 8 7 6 6 7 6 6 5 4 4 3 2 2 2 1 2 1 1
7 7 9 10 10 9 4 1 3 4 4 4 4 4 7 5 7 10 9 8 8 8 9 10 10 9 8 7 6 6 6 6 6 5 5 4 3 2 2 1 2 2 1 2
8 3 5 6 4 5 4 2 1 2 2 6 9 8 7 5 7 7 8 8 7 7 7 8 8 8 7 7 6 5 6 5 6 5 5 4 4 3 2 2 2 1 1 1
7 7 4 3 4 5 6 5 3 3 4 8 7 7 8 4 2 5 7 7 6 6 6 7 8 8 8 8 7 6 6 5 5 5 5 4 4 3 3 3 2 1 1 1
8 8 10 7 7 7 9 7 6 6 6 4 5 8 5 3 4 5 6 6 5 5 5 6 7 8 8 8 7 6 6 5 5 5 4 4 3 2 2 2 2 2 2 2
5 4 7 7 4 6 8 8 3 1 2 2 5 4 2 3 4 4 5 6 5 5 5 5 6 7 7 7 6 6 5 5 5 5 4 4 3 2 2 2 1 2 2 2
1 2 4 4 3 4 3 4 4 4 4 5 5 6 5 7 6 5 6 6 5 5 5 5 5 5 6 6 5 4 4 4 4 4 4 2 2 2 2 2 2 2 2 2
1 1 2 4 8 9 6 5 5 4 4 4 4 2 1 4 6 6 5 6 6 6 5 5 4 4 5 5 5 4 4 3 3 3 3 3 2 2 1 1 2 2 2 3
2 1 2 4 2 2 4 5 6 5 5 4 2 2 3 4 5 5 5 5 5 5 5 4 4 4 4 5 5 4 3 3 3 2 2 2 2 1 1 1 2 2 2 3
1 2 2 2 2 2 3 4 4 3 2 3 3 3 0 3 5 5 5 5 5 5 5 4 4 4 4 4 4 4 3 3 3 2 2 2 1 1 1 1 2 2 3 3
1 3 4 5 2 4 5 6 6 5 5 4 4 3 2 2 3 4 4 5 5 5 4 3 3 3 3 3 4 4 3 3 3 2 2 2 1 1 1 1 2 2 3 3
1 3 4 5 4 3 4 7 9 9 8 5 4 4 4 3 3 3 4 4 5 4 3 3 2 2 2 3 3 3 3 3 3 2 2 1 1 0 1 1 2 3 3 4
1 2 2 4 4 3 4 6 10 10 9 7 4 3 1 2 3 3 3 3 3 3 2 2 2 2 2 2 2 2 2 2 3 2 2 1 1 1 1 2 2 3 3 4
2 2 2 3 3 2 6 8 10 8 7 7 7 5 3 2 2 2 2 1 1 2 2 2 2 2 2 2 2 2 2 2 2 2 2 1 1 1 1 2 2 3 3 4
3 3 2 2 2 6 4 1 6 6 4 4 3 2 2 3 2 2 3 2 1 2 2 2 2 2 2 2 2 2 2 3 2 2 1 1 1 1 2 2 2 3 3 3
5 3 2 2 4 4 2 1 1 4 3 2 3 2 2 3 3 1 2 2 1 1 1 2 2 2 2 3 3 3 3 2 2 2 1 1 1 1 2 2 3 3 3 4
4 3 3 3 3 3 2 2 2 2 2 1 1 1 1 3 2 1 2 3 3 3 3 3 3 3 3 3 3 3 2 2 1 1 1 1 1 1 2 3 3 3 3 4
4 4 5 4 3 2 2 2 1 3 3 1 2 2 2 1 2 2 3 4 4 3 3 4 4 3 3 3 3 3 2 1 1 1 1 1 1 2 2 3 2 3 3 4
3 3 4 3 4 3 2 2 2 1 2 3 3 3 4 3 3 4 4 4 4 4 4 4 4 3 3 3 3 3 2 2 2 2 1 2 2 2 2 2 3 3 3 4
0 1 1 2 2 1 3 3 2 3 3 3 3 3 3 3 3 3 3 3 3 4 3 4 4 3 3 3 3 3 2 2 3 2 2 2 2 2 2 2 3 3 3 3
2 2 1 1 1 2 3 4 4 4 3 3 4 4 4 3 3 3 3 3 3 3 3 3 4 4 3 3 3 3 2 3 2 2 2 2 2 3 2 2 2 2 3 3
2 2 1 0 1 2 3 4 5 5 5 5 5 4 3 3 2 3 3 3 3 3 3 3 3 3 3 3 3 3 3 3 2 2 2 2 2 2 3 3 2 3 2 3
2 2 1 1 1 1 1 3 4 4 4 4 4 5 4 3 3 3 3 2 2 3 3 3 3 3 2 3 3 3 3 3 2 2 2 2 2 2 2 3 4 5 6 8
Wind_Direction
193 204 210 208 214 234 257 246 249 228 155 194 223 241 245 227 213 212 210 202 193 191 181 167 159 155 153 154 154 157 158 159 150 153 157 156 165 165 142 159 158 184 249 335
194 224 225 222 218 231 252 257 259 258 155 209 248 256 250 233 219 212 210 206 195 186 176 166 161 161 164 163 161 162 163 164 160 163 166 166 162 178 181 188 187 203 225 265
212 213 217 224 224 222 233 237 238 239 197 238 272 278 239 230 218 208 205 201 192 182 178 170 166 166 162 164 164 168 166 163 162 158 150 139 115 114 153 199 205 210 210 231
229 228 216 217 223 217 232 238 234 226 216 246 197 270 255 216 208 204 200 194 192 181 174 171 168 169 169 165 158 160 161 160 161 157 161 167 173 191 212 201 211 223 207 212
225 211 210 216 220 217 213 233 226 223 226 264 230 249 269 211 214 203 192 188 188 179 173 169 169 169 163 155 156 159 160 161 162 166 170 176 188 204 202 191 203 224 220 212
246 256 223 223 226 208 154 138 204 241 221 246 217 212 260 215 209 189 180 177 179 170 162 158 156 152 149 149 153 158 162 165 165 170 176 182 188 193 194 206 208 225 229 232
227 228 223 195 180 179 175 152 156 189 213 238 201 205 240 212 174 164 162 165 164 153 153 153 153 156 157 157 159 163 166 172 170 172 181 185 191 191 197 202 205 222 236 249
201 212 196 197 194 179 195 187 179 188 205 220 188 216 235 154 109 103 115 123 128 137 145 149 153 155 154 155 159 165 171 174 174 175 184 185 186 188 195 201 208 228 236 243
212 218 166 188 203 179 180 212 230 238 267 231 217 212 207 138 128 127 128 127 138 142 140 143 144 147 148 151 157 164 168 174 177 177 180 185 185 189 191 202 220 236 246 260
288 226 186 175 195 245 214 186 173 189 203 228 223 207 201 174 172 163 153 148 147 145 143 140 139 143 146 148 150 155 163 175 175 174 182 183 183 184 185 200 230 249 260 267
228 198 170 169 198 193 187 199 194 198 225 208 218 227 4 154 153 149 142 141 145 145 145 141 140 141 140 140 146 152 163 160 165 178 174 170 179 175 189 212 233 247 261 262
209 190 211 203 189 218 210 202 186 186 218 218 234 254 355 84 105 114 115 120 123 127 130 135 137 137 138 142 148 156 165 167 166 166 165 165 166 173 208 235 251 256 265 268
165 176 175 180 203 225 224 225 215 209 221 218 211 219 118 90 97 107 116 115 116 120 122 125 132 142 146 146 148 152 155 160 149 154 156 152 161 181 227 254 269 274 276 280
217 196 212 215 225 176 203 208 199 194 211 224 220 184 190 130 110 109 114 114 110 113 116 120 132 144 143 141 142 146 144 141 138 144 153 155 167 181 262 298 299 292 287 285
211 224 243 271 279 212 212 210 201 206 218 217 218 191 185 165 152 130 116 112 110 108 113 118 125 131 134 136 137 136 140 139 134 143 144 155 135 72 356 327 313 305 298 294
229 239 254 262 248 239 239 216 207 215 224 236 240 245 173 113 100 102 110 119 123 133 129 120 108 108 122 128 131 127 131 141 137 135 137 120 87 43 351 316 305 305 304 302
228 208 224 245 236 236 247 219 200 206 210 206 220 223 145 128 129 139 131 119 144 143 129 123 117 101 102 107 115 125 130 116 120 124 121 107 91 23 322 311 312 307 307 309
204 217 222 230 209 225 237 258 187 189 214 205 184 163 153 148 129 85 90 98 69 88 115 115 107 92 81 84 89 95 102 108 110 108 101 89 61 337 321 316 312 309 308 306
206 197 208 207 227 247 272 310 163 175 243 245 199 180 133 128 103 47 59 66 65 62 96 117 110 101 84 82 85 87 89 92 93 87 71 38 350 313 314 311 307 309 311 309
194 189 206 219 228 235 282 312 293 126 263 335 112 141 143 128 159 228 52 57 58 58 68 80 83 80 79 74 80 84 84 89 90 80 27 336 325 314 304 301 304 309 309 306
181 199 211 224 234 266 326 325 70 155 229 34 78 78 89 115 151 112 74 63 73 72 73 81 79 75 69 70 79 79 72 65 46 39 9 342 327 312 304 304 305 312 312 312
182 198 204 206 217 246 359 71 113 115 57 60 59 64 69 71 76 75 71 66 67 68 66 73 76 67 58 67 78 69 41 23 35 35 14 342 327 320 323 315 315 318 319 317
172 215 211 180 187 78 79 72 45 37 40 37 54 66 80 77 76 77 74 66 66 67 65 66 76 69 51 50 67 66 21 27 31 20 0 342 333 330 326 322 323 326 326 323
345 347 10 61 33 44 55 45 36 35 36 37 56 63 76 81 70 72 74 70 70 66 67 69 69 65 50 40 46 49 29 28 29 7 349 347 343 339 337 333 321 322 324 324
330 349 359 314 348 9 23 26 22 28 35 40 46 51 58 79 73 78 79 73 71 66 61 64 71 66 49 40 40 40 33 26 23 3 351 348 344 339 336 332 322 319 308 313
1 341 308 268 306 311 327 16 25 30 28 32 44 42 37 52 70 74 70 65 69 69 64 63 59 54 43 38 30 28 29 27 20 5 356 347 339 337 333 328 330 332 325 326